Regional Weather Roundup
Issued by NWS

Home | Current Version | Previous Version | Text Only | Print | Product List | Glossary On
Versions: 1 2 3 4 5 6 7 8 9 10 11 12 13 14 15 16 17 18 19 20 21 22 23 24 25 26 27 28 29 30 31 32 33 34 35 36 37 38 39 40 41 42 43 44 45 46 47 48 49 50
000
ASUS44 KLIX 051612
RWRLA
LOUISIANA WEATHER ROUNDUP
NATIONAL WEATHER SERVICE NEW ORLEANS LA
1100 AM CDT TUE MAY 05 2015

NOTE: "FAIR" INDICATES FEW OR NO CLOUDS BELOW 12,000 FEET WITH NO
      SIGNIFICANT WEATHER AND/OR OBSTRUCTIONS TO VISIBILITY.
      SKY/WX - SKY CONDITION AND SIGNIFICANT WEATHER.
      TMP - AIR TEMPERATURE.    DP   - DEWPOINT TEMPERATURE.
      RH  - RELATIVE HUMIDITY.  PRES - PRESSURE.
      HX  - HEAT INDEX.         WCI  - WIND CHILL INDEX.

*  THESE STATIONS ARE NOT NWS OR FAA STATIONS AND ARE NOT UNDER
   NWS QUALITY CONTROL.

LAZ040-048-061>063-065-066-069-051700-
SOUTHEAST LOUISIANA

CITY           SKY/WX    TMP DP  RH WIND       PRES   REMARKS
N.O. AUDUBON     N/A     81  64  57 MISG        N/A
N.O. INTL ARPT MOSUNNY   81  61  50 E13G22    30.18R
N.O. LAKEFRONT PTSUNNY   80  65  59 E16G25    30.19R
SLIDELL        MOSUNNY   80  65  59 SE14G22   30.20R
BATON ROUGE    MOSUNNY   81  65  58 E9        30.18S
BOOTHVILLE     MOSUNNY   79  66  64 E12G21    30.20R
BELLE CHASSE   MOSUNNY   79  63  57 SE17      30.18R
BOGALUSA*        N/A     80  62  53 SE10G16   30.22S
GALLIANO*      MOSUNNY   82  66  58 MISG      30.18R
NEW ROADS*     PTSUNNY   78  62  57 E15       30.18S
GONZALES*      PTSUNNY   80  62  54 E10G20    30.17R
HAMMOND*       MOSUNNY   81  63  54 SE9       30.21S
HOUMA*         MOSUNNY   81  66  61 SE12G23   30.17R
PORT FOURCHON* SUNNY     79  68  69 E16G24    30.20R

$$

LAZ041-044-053-054-051700-
SOUTHWEST LOUISIANA

CITY           SKY/WX    TMP DP  RH WIND       PRES   REMARKS
LAKE CHARLES   MOSUNNY   80  65  59 SE21      30.12S
LAFAYETTE      PTSUNNY   78  65  63 SE10G18   30.15S
PATTERSON      CLOUDY   N/A N/A N/A E20G26    30.16S
SALT POINT       N/A     78  68  71 SE12G17   30.14R
NEW IBERIA       N/A    N/A N/A N/A MISG      30.16R
CHENAULT AIRPK SUNNY     77  66  69 SE14G21   30.12

$$

LAZ027-028-051700-
CENTRAL LOUISIANA

CITY           SKY/WX    TMP DP  RH WIND       PRES   REMARKS
FORT POLK      MOSUNNY   78  63  59 SE14      30.12F
ALEXANDRIA INT PTSUNNY   77  64  64 SE14G22   30.14S
ALEXANDRIA     PTSUNNY   80  64  58 SE13G22   30.17R

$$

LAZ001-002-051700-
NORTHWEST LOUISIANA

CITY           SKY/WX    TMP DP  RH WIND       PRES   REMARKS
SHREVEPORT     PTSUNNY   78  63  59 SE16      30.13S
BARKSDALE AFB  MOSUNNY   76  63  63 SE13      30.14R
DTN SHREVEPORT PTSUNNY   76  63  64 SE12      30.13S

$$

LAZ014-016-051700-
NORTHEAST LOUISIANA

CITY           SKY/WX    TMP DP  RH WIND       PRES   REMARKS
MONROE         SUNNY     78  61  55 S13G21    30.19S
TALLULAH       SUNNY     79  62  56 SE12      30.21S

$$



USA.gov is the U.S. government's official web portal to all federal, state and local government web resources and services.